Flugplatz Hengsen-Opherdicke (UL)

Hier findest Du alle Informationen zum Flugplatz Hengsen-Opherdicke (UL).

Informationen für Piloten zum Flugplatz Hengsen-Opherdicke

Hier findest Du alle relevanten Informationen, die Du als Pilot benötigst, um Hengsen-Opherdicke anzufliegen.

Flugplatz: Hengsen-Opherdicke ICAO-Code: UL Flugplatz
Frequenz Turm: 123.350 Mhz GAFOR Gebiet: -
Frequenz Ground: 123.350 Mhz Mogas: nein
Platzrunde: S 1400 ft Landegebühr: 3,5 €
Platzhöhe: - Sunrise: 05:16 Uhr UTC
Pisten: 07/25 - 580 m x 30 m, GRAS Sunset: 17:26 Uhr UTC

Flugwetter am Flugplatz Hengsen-Opherdicke

Die METAR Information stammen aus EDLW (5.49 km entfernt).

METAR Code:
2020/09/14 11:20
EDLW 141120Z VRB03KT CAVOK 29/15 Q1025

Flugschulen am Flugplatz Hengsen-Opherdicke

Am Flugplatz Hengsen-Opherdicke gibt es leider keine Flugschule.

Benachbarte Flugplätze und Flugschulen

Es gibt 24 weitere Flugplätze in einem Umkreis von 50 km um den Flugplatz Hengsen-Opherdicke.

Jetzt anmelden

Passwort vergessen

Umfrage Archiv

Wären Rettungsgeräte keine Pflicht mehr, würdet Ihr Euer UL trotzdem mit einem ausstatten?

Ja
85.6 %
Nein
14.4 %
Stimmen: 319 | Diskussion
Anzeige: Roland Aircraft
Statistik Alle Mitglieder

Aktuell sind 57 Besucher online, davon 3 Mitglieder und 54 Gäste.


Mitglieder online:
mountainfly  Chris_EDNC  Pinie 

Anzeige: VFR Sprechfunk Simulator


Anzeige: Pocket FMS